Orbital Elements at Epoch 2459200.5 (2020-Dec-17.0) TDB
Reference: JPL 15 (heliocentric ecliptic J2000)
Element | Value | Uncertainty (1-sigma) | Units |
e | .1072601933420115 | 7.3769e-08 | |
a | 2.654020748961615 | 1.7578e-08 | au |
q | 2.369349970294282 | 1.9326e-07 | au |
i | 2.388952179094588 | 7.2855e-06 | deg |
node | 3.761129977250385 | 0.00013204 | deg |
peri | 325.8730898484765 | 0.0001362 | deg |
M | 217.4627016261755 | 3.8422e-05 | deg |
tp | 2459825.789188821997 (2022-Sep-03.28918882) | 0.00017132 | TDB |
period | 1579.264589297539 4.32 | 1.5689e-05 4.295e-08 | d yr |
n | .2279542025064521 | 2.2646e-09 | deg/d |
Q | 2.938691527628948 | 1.9463e-08 | au |
|
| | Orbit Determination Parameters
Additional Information
|